This is the latest recevied weather packets stored in our database for station/object KT2UU-13. If no packets are shown the sender has not sent any weather packets the latest 10 day(s).
| Time | Temp. | Humidity | Pressure | Rain* | Wind** | Luminosity | Snow |
|---|---|---|---|---|---|---|---|
| 1777939262 | 22.78° C | 45% | 1014.8 hPa | 0 mm | - | - | - |
| 1777938958 | 23.33° C | 46% | 1014.8 hPa | 0 mm | - | - | - |
| 1777938655 | 23.33° C | 46% | 1014.8 hPa | 0 mm | - | - | - |
| 1777938351 | 23.89° C | 44% | 1014.7 hPa | 0 mm | - | - | - |
| 1777938049 | 23.89° C | 43% | 1014.7 hPa | 0 mm | - | - | - |
| 1777937744 | 24.44° C | 44% | 1014.7 hPa | 0 mm | - | - | - |
| 1777937441 | 24.44° C | 41% | 1014.8 hPa | 0 mm | - | - | - |
| 1777937138 | 25° C | 42% | 1014.8 hPa | 0 mm | - | - | - |
| 1777936836 | 25° C | 41% | 1014.8 hPa | 0 mm | - | - | - |
| 1777936532 | 25° C | 41% | 1014.7 hPa | 0 mm | - | - | - |
| 1777936228 | 25° C | 41% | 1015 hPa | 0 mm | - | - | - |
| 1777935925 | 25° C | 41% | 1014.8 hPa | 0 mm | - | - | - |
| 1777935624 | 25° C | 46% | 1014.7 hPa | 0 mm | - | - | - |
| 1777935320 | 25.56° C | 44% | 1014.7 hPa | 0 mm | - | - | - |
| 1777935017 | 25° C | 43% | 1014.9 hPa | 0 mm | - | - | - |
| 1777934714 | 24.44° C | 45% | 1014.7 hPa | 0 mm | - | - | - |
| 1777934411 | 24.44° C | 44% | 1014.8 hPa | 0 mm | - | - | - |
| 1777934108 | 24.44° C | 43% | 1014.9 hPa | 0 mm | - | - | - |
| 1777933803 | 24.44° C | 43% | 1014.9 hPa | 0 mm | - | - | - |
| 1777933501 | 24.44° C | 45% | 1015 hPa | 0 mm | - | - | - |
| 1777933198 | 25° C | 41% | 1015.1 hPa | 0 mm | - | - | - |
| 1777932895 | 25° C | 42% | 1015.1 hPa | 0 mm | - | - | - |
| 1777932592 | 25° C | 42% | 1014.8 hPa | 0 mm | - | - | - |
| 1777932288 | 25° C | 42% | 1014.9 hPa | 0 mm | - | - | - |
| 1777931985 | 25.56° C | 42% | 1015 hPa | 0 mm | - | - | - |
* Rain latest hour (hover to see other rain measurements)
** Current wind speed in m/s (hover to see current wind gust speed)